Location: Bush Observatory
(40.2653°N, 94.3194°W)
Time: 10:15:34
(UTC-06:00)

Daily predictions for brighter satellites

Satellite Brightness Start Highest point End
(mag) Time Altitude Azimuth Time Altitude Azimuth Time Altitude Azimuth
MOS 1 4.5 17:13:29 10° SE 17:18:57 51° ENE 17:24:24 10° N
Cosmos 1544 Rocket 4.4 17:15:57 10° NNE 17:19:56 31° ENE 17:23:54 10° SE
COSMO-SKYMED 1 4.2 17:18:02 10° NE 17:20:38 16° E 17:23:14 10° SE
COSMOS 2406 3.2 17:16:31 10° NNW 17:22:15 74° ENE 17:27:59 10° SSE
Cosmos 1975 Rocket 3.0 17:18:32 10° S 17:22:49 70° E 17:27:08 10° NNE
Cosmos 2154 Rocket 4.4 17:17:13 10° N 17:23:25 73° W 17:29:39 10° S
Cosmos 1125 Rocket 4.2 17:20:59 10° SSW 17:26:12 59° WNW 17:31:29 10° NNE
ISS -3.0 17:25:21 10° WSW 17:28:37 64° NW 17:31:54 10° NE
ATLAS 2AS CENTAUR R/B 3.2 17:21:32 10° NNW 17:29:27 53° NE 17:36:51 10° SE
Meteor 1-5 Rocket 4.1 17:27:25 10° N 17:32:50 73° E 17:38:24 10° SSE
Thor Agena Rocket 3.6 17:29:07 10° NNE 17:34:18 66° ESE 17:39:31 10° S
Cosmos 1484 Rocket 3.8 17:35:14 10° ESE 17:38:13 23° ENE 17:41:11 10° NNE
Cosmos 1536 Rocket 4.3 17:35:30 10° SSE 17:39:27 32° E 17:43:27 10° NNE
Cosmos 2082 Rocket 3.6 17:38:29 10° N 17:42:06 17° NE 17:45:09 12° E
Cosmos 1833 Rocket 4.2 17:42:33 10° NNE 17:45:51 16° NE 17:47:38 14° ENE
Cosmos 2251 Rocket 3.7 17:41:23 10° N 17:46:38 53° ENE 17:51:49 10° SE
AQUARIUS 4.1 17:42:43 10° SSE 17:47:13 83° ENE 17:51:44 10° N
YAOGAN 1 2.5 17:42:54 10° SSE 17:47:13 76° ENE 17:51:34 10° N
SJ-7 4.4 17:48:19 10° SSE 17:52:32 83° ENE 17:56:48 10° N
SL-27 R/B 2.4 17:50:47 10° NNW 17:54:28 76° ENE 17:58:05 10° SSE
Cosmos 1500 4.1 17:53:12 10° NNE 17:56:32 27° ENE 17:59:50 10° SE
CZ-2C R/B 2.6 17:53:14 10° S 17:58:10 77° WSW 18:03:18 10° NNW
Cosmos 1238 Rocket 1.9 17:55:42 10° S 17:58:38 73° E 18:01:37 10° N
MONITOR-E 4.4 17:55:39 10° SSE 17:58:44 49° ENE 18:01:51 10° N
SL-8 Rocket 4.1 17:53:45 10° N 17:59:57 83° W 18:06:05 10° S
Meteor 1-28 Rocket 4.5 18:00:16 21° ENE 18:01:01 22° E 18:04:00 10° SSE
EP 2 4.3 17:58:30 10° SSW 18:01:04 55° ESE 18:02:09 29° NE
BREEZE M DEB (TANK) 3.7 17:51:21 10° SW 18:01:44 49° SSE 18:04:05 21° E
CZ-4 R/B 4.4 17:57:45 10° SSE 18:01:54 83° ENE 18:06:04 10° N
SMAP 3.5 18:00:14 10° S 18:04:50 65° WSW 18:09:29 10° NNW
SL-24 DEB 4.3 18:00:56 10° NNE 18:05:38 59° E 18:10:16 10° S
OPS 8737 4.2 18:02:41 10° SW 18:06:04 87° NW 18:07:58 22° NNE
BREEZE-M R/B 4.4 17:54:29 10° SW 18:06:19 80° SE 18:10:11 21° ENE
Okean 1 3.4 18:02:49 10° S 18:06:46 56° E 18:10:46 10° NNE
SKYMED 2 3.7 18:04:45 10° NNE 18:09:01 52° E 18:13:14 10° S
Abrixas 4.3 18:07:18 10° NW 18:09:25 18° N 18:09:39 17° NNE
Cosmos 1455 Rocket 3.0 18:05:12 10° N 18:09:36 85° E 18:14:02 10° S
Cosmos 2366 rocket 4.0 18:04:15 10° N 18:10:39 87° E 18:16:57 10° S
COSMOS 2441 4.3 18:06:48 10° SSE 18:11:39 77° ENE 18:16:33 10° N
OTV 4 2.8 18:11:14 10° WSW 18:13:34 20° SSW 18:15:54 10° SSE
Cosmos 2218 Rocket 4.2 18:07:37 10° N 18:13:56 78° W 18:20:07 10° S
Meteor 1-18 Rocket 4.2 18:10:00 10° S 18:15:37 87° W 18:21:23 10° N
Cosmos 1812 3.0 18:15:02 10° SSW 18:18:52 68° W 18:22:44 10° N
GEOS 3 Rocket 3.6 18:17:34 10° SE 18:22:35 58° NE 18:27:36 10° NNW
Cosmos 1346 Rocket 2.7 18:21:18 10° S 18:25:09 59° E 18:26:53 30° NNE
Timation 2 Rocket 4.4 18:19:11 10° NNW 18:25:41 45° ENE 18:32:13 10° SE
Cosmos 1809 Rocket 4.3 18:22:40 10° N 18:28:50 69° E 18:34:54 10° SSE
Cosmos 1844 Rocket 3.9 18:25:00 10° SW 18:30:11 38° WNW 18:35:25 10° N
ATLAS 3B CENTAUR R/B 4.4 18:13:44 10° WSW 18:32:14 42° S 18:38:07 17° ESE
CZ-4 R/B 4.3 18:34:17 10° SW 18:37:19 19° W 18:40:21 10° NW
SL-8 R/B 3.6 18:32:37 10° WSW 18:37:24 81° NNW 18:38:57 43° NE
CZ-3B DEB 2.8 18:33:57 10° WSW 18:37:55 56° NNW 18:43:54 21° NE
COSMOS 2487 4.1 18:38:20 10° N 18:39:54 24° N 18:39:54 24° N
Cosmos 2297 3.6 18:39:51 10° S 18:45:24 62° ESE 18:47:18 40° NE
Cosmos 1821 Rocket 4.0 18:39:52 10° N 18:45:48 50° ENE 18:51:41 10° SSE
Cosmos 1975 3.9 18:46:27 10° NNW 18:50:23 47° W 18:54:15 10° SSW
USA 234 4.5 18:48:21 18° NNE 18:52:09 32° NNW 18:57:46 10° W
TIMED 4.3 18:49:00 10° S 18:53:20 73° ESE 18:53:21 73° ESE
COSMO-SKYMED 1 3.6 18:53:03 11° N 18:57:00 44° WNW 19:01:07 10° SW
Cosmos 2278 Rocket 3.0 18:55:28 10° SW 19:00:53 47° WNW 19:04:53 18° N
Tiangong 1 3.3 19:00:20 10° SW 19:01:34 21° SW 19:01:34 21° SW
Meteor 1-19 Rocket 4.1 18:57:46 10° S 19:03:32 84° E 19:06:35 30° NNE
BREEZE M DEB (TANK) 3.8 19:00:57 10° NW 19:04:57 52° NNE 19:06:13 46° ENE
NOSS 3-4 (A) 4.3 18:58:32 10° NNW 19:04:35 38° NE 19:04:35 38° NE
NOSS 3-4 (C) 4.3 18:58:39 10° NNW 19:04:38 38° NE 19:04:38 38° NE
ISS -0.6 19:03:28 10° WNW 19:04:42 15° NW 19:04:42 15° NW
Nadezhda 3 Rocket 4.2 19:00:50 10° SSW 19:06:58 68° W 19:13:14 10° N
ATLAS 2AS CENTAUR R/B 4.3 19:13:04 10° NW 19:20:15 38° WSW 19:26:58 10° S
Cosmos 2082 Rocket 2.2 19:21:10 10° NNW 19:26:51 78° WSW 19:27:08 76° SSW
Cosmos 1833 Rocket 3.0 19:24:52 10° NNW 19:29:26 60° NNW 19:29:26 60° NNW
Timation 1 Rocket 4.5 19:27:41 10° SSW 19:33:36 69° WNW 19:34:04 66° NW
FALCON 9 R/B 3.2 19:34:54 10° W 19:50:53 58° S 19:51:03 58° S
